STARLINK-4691, 53588

Orbit data source: Space-Track

STARLINK-4691, 53588 is a payload satellite owned by SpaceX/Seattle (US) in LEO that was launched on Sun, 28 Aug 2022 UTC via an FALCON 9 launch vehicle from the Air Force Eastern Test Range (AFETR). Payload-class satellites include a variety of spacecraft equipped with specific instruments for various scientific and technological missions. These include communications satellites like Starlink; space stations such as the ISS; scientific satellites like the Hubble; Earth observation satellites from companies like Planet Labs, Umbra, and HawkEye 360; GPS; miniature CubeSats for education and research; and military/defense satellites.

Loading next visibility...
Identifier
53588, 2022-104A
Orbit
LEO
Country
Flag of USUS
Related business
Manufacturer
SpaceX/Seattle
Mission
Operational Commercial Communications
Bus & Motor
STARLINK, Unknown motor
Mass
300 kg wet, ~290 kg dry
Launch date (UTC)
2022-08-28 (4 years ago)
Launch vehicle
FALCON 9
Launch site
Air Force Eastern Test Range (AFETR)
Object type
Payload
Rocket body
Debris
Shape & HBR
Box + 1 Pan, 10.1 m
Radar Cross Section
13.562 m², Large (>1 m²)

Expand to show TLE details & history
Last TLE update: 13 hours ago

TLE from 13 hours ago
0 STARLINK-4691
1 53588U 22104A   26126.86386036 -.00002035  00000-0 -10984-3 0  9992
2 53588  53.2207 343.2080 0001365 119.2872 240.8257 15.08821074204870
Epoch: 2026-05-06T20:43Z
TLE epoch observation values (Epoch: 2026-05-06T20:43:57.535Z)
Latitude
0.00002°
Longitude
167.50004°
Altitude
541.159 km
Speed
7.593 km/s
True Right ascension
22h 52m 49s
True Declination
0° 00' 00"
Sunlit
Object was in daylight at epoch
Visualization orbit readout
Latitude
Unknown
Longitude
Unknown
Altitude
Unknown
Speed
Unknown
Apparent Right ascension
Unknown
Apparent Declination
Unknown
Sunlit
N/A
Visualization observer readout
Local Sidereal Time
17:30:58
Azimuth
Unknown
Elevation
Unknown
Doppler factor
Unknown
Orbital elements
Apogee altitude
540.99 km
Perigee altitude
539.101 km
Semi-major axis
6,918.183 km
Eccentricity
0.00014
Inclination
53.2207°
RAAN
343.208°
Arg. of periapsis
119.2872°
True anomaly
240.81204°
Mean anomaly
240.8257°
Eccentric anomaly
240.81887°
Mean motion
3.77186 °/min
Orbital period
95.44 mins
BSTAR
-0.00010984
Loading maneuver chart data...
Computing Atmospheric mass density...
Loading historical data...
Loading historical data...
Loading historical data...
Loading historical data...
Loading historical data...
Loading historical data...
Loading historical data...

Documentation

Showing up to 5 results
|